Simultaneous Nadir Overpasses (SNOs) Predictions

Prediction of SNOs between LANDSAT-8 and NOAA-19 Satellite Orbit:

Table of predicted SNOs for the next 14.0 days since TLE Epoch: 5/31/2019
Index Date (LANDSAT-8) Time (LANDSAT-8) Lat,Lon (LANDSAT-8) SZA (LANDSAT-8 ) Date (NOAA-19) Time (NOAA-19) Lat,Lon (NOAA-19) SZA (NOAA-19 ) Distance(km) Time Diff (sec)
1 06/01/2019 00:44:24 -78.81, 8.52 122.49 06/01/2019 00:43:37 -78.78, 8.44 122.53 3.51 47
2 06/01/2019 01:33:51 78.76, 175.89 57.45 06/01/2019 01:34:36 78.77, 175.81 57.46 1.75 45
3 06/03/2019 06:18:09 78.79, 104.95 57.19 06/03/2019 06:17:02 78.80, 105.05 57.19 2.60 67
4 06/03/2019 07:07:37 -78.76, -87.57 122.86 06/03/2019 07:08:03 -78.77, -87.46 122.83 2.51 26
5 06/05/2019 12:41:21 78.77, 9.08 56.90 06/05/2019 12:41:27 78.77, 9.24 56.91 3.57 6
6 06/07/2019 18:15:06 -78.81, 105.86 123.29 06/07/2019 18:14:56 -78.80, 105.73 123.31 2.97 10
7 06/07/2019 19:04:40 78.47, -88.38 56.26 06/07/2019 19:05:44 78.47, -84.64 56.56 83.04 64
8 06/09/2019 23:48:50 78.82,-157.53 56.52 06/09/2019 23:48:19 78.82,-157.64 56.51 2.32 31
9 06/10/2019 00:38:18 -78.80, 9.97 123.51 06/10/2019 00:39:21 -78.76, 10.01 123.52 4.00 63
10 06/12/2019 05:22:36 -78.82, -60.99 123.65 06/12/2019 05:21:48 -78.82, -60.94 123.66 1.14 48
11 06/12/2019 06:12:02 78.80, 106.57 56.33 06/12/2019 06:12:44 78.80, 106.50 56.33 1.57 42
12 06/14/2019 10:56:20 78.82, 35.59 56.22 06/14/2019 10:55:10 78.84, 35.67 56.22 2.72 70




NCC Satellite Simultaneous Nadir Overpasses (SNOs) Prediction Service
